Location: Unspecified
(35.7250°N, 0.0000°E)
Time: 04:04:36
(UTC+00:00)

Tiros 1 - Pass Details

Date: 26 June 2019
Orbit: 630 x 664 km, 48.4° (Epoch: 21 July)

Event Time Altitude Azimuth Distance (km) Brightness Sun altitude
Rises 20:24:35 0° 218° (SW) 2,966 10.5 -11.6°
Reaches altitude 10° 20:26:58 10° 213° (SSW) 2,053 9.7 -11.9°
Maximum altitude 20:31:33 51° 138° (SE) 814 7.3 -12.6°
Drops below altitude 10° 20:36:07 10° 63° (ENE) 2,040 9.5 -13.3°
Sets 20:38:29 0° 58° (ENE) 2,947 10.4 -13.7°
